Location: Newark
(44.2003°N, 3.2583°E)
Time: 12:16:28
(UTC+00:00)

Explorer 7 - Pass Details

Date: 22 October 2019
Orbit: 485 x 680 km, 50.3° (Epoch: 18 November)

Event Time Altitude Azimuth Distance (km) Brightness Sun altitude
Rises 13:29:36 0° 288° (WNW) 2,550 10.4 28.6°
Reaches altitude 10° 13:31:55 10° 299° (WNW) 1,675 9.4 28.3°
Maximum altitude 13:35:21 32° 4° (N) 866 7.6 28.0°
Drops below altitude 10° 13:38:53 10° 70° (ENE) 1,724 9.0 27.6°
Sets 13:41:17 0° 80° (E) 2,637 9.9 27.4°
